Location: İstanbul
(41.0082°N, 28.9784°E)
Time: 22:18:16
(UTC+03:00)

NOAA 19 - Pass Details

Date: 30 April 2024
Orbit: 839 x 859 km, 99.0° (Epoch: 29 May)

Event Time Altitude Azimuth Distance (km) Brightness Sun altitude
Exits shadow 22:02:08 22° 186° (S) 1,754 6.5 -20.3°
Maximum altitude 22:05:36 59° 259° (WSW) 971 5.6 -20.7°
Drops below altitude 10° 22:10:59 10° 338° (NNW) 2,463 8.6 -21.4°
Sets 22:13:24 0° 342° (NNW) 3,402 9.4 -21.8°
